When you browse on this site, cookies collect data to enhance your experience and personalize the content and advertising you see.
Visit our Privacy Policy to learn more. By continuing to use the site, you agree to this use of cookies and data.
  • In Österreich
  • Länderverzeichnis
  • Für 7 Tage
  • Wassertemperatur
  • Wetterkarte
  • News
  • Widgets
  • user-avatar
    Anmelden

    Stündliche Wetter Huautla

    Heute, 18 August, Sonntag

    Zeit Temperatur Niederschläge Wind Luftdruck Luftfeuchtigkeit
    00:00 +25°C° 0 mm 1 m/S 721 mmHg 94%
    01:00 +24°C° 0 mm 1 m/S 721 mmHg 93%
    02:00 +24°C° 0 mm 1 m/S 721 mmHg 93%
    03:00 +24°C° 0 mm 1 m/S 721 mmHg 93%
    04:00 +22°C° 0 mm 0 m/S 721 mmHg 93%
    05:00 +22°C° 0 mm 0 m/S 721 mmHg 92%
    06:00 +23°C° 0 mm 0 m/S 722 mmHg 88%
    07:00 +25°C° 0 mm 0 m/S 722 mmHg 83%
    08:00 +26°C° 0 mm 0 m/S 723 mmHg 78%
    09:00 +30°C° 0 mm 1 m/S 723 mmHg 72%
    10:00 +31°C° 0 mm 1 m/S 722 mmHg 66%
    11:00 +33°C° 0 mm 1 m/S 722 mmHg 61%
    12:00 +34°C° 0 mm 2 m/S 722 mmHg 60%
    13:00 +34°C° 0 mm 2 m/S 721 mmHg 59%
    14:00 +34°C° 0 mm 2 m/S 720 mmHg 58%
    15:00 +33°C° 0.1 mm 3 m/S 720 mmHg 62%
    16:00 +31°C° 0.1 mm 3 m/S 720 mmHg 67%
    17:00 +31°C° 0.1 mm 3 m/S 720 mmHg 71%
    18:00 +29°C° 0.1 mm 3 m/S 721 mmHg 77%
    19:00 +27°C° 0.1 mm 2 m/S 721 mmHg 84%
    20:00 +26°C° 0.1 mm 2 m/S 722 mmHg 90%
    21:00 +26°C° 0 mm 2 m/S 722 mmHg 91%
    22:00 +25°C° 0 mm 1 m/S 722 mmHg 93%
    23:00 +25°C° 0 mm 1 m/S 722 mmHg 95%

    Morgen, 19 August, Montag

    Zeit Temperatur Niederschläge Wind Luftdruck Luftfeuchtigkeit
    00:00 +25°C° 0.5 mm 1 m/S 722 mmHg 95%
    01:00 +24°C° 0.5 mm 1 m/S 722 mmHg 94%
    02:00 +24°C° 0.5 mm 1 m/S 721 mmHg 94%
    03:00 +24°C° 0.4 mm 1 m/S 722 mmHg 94%
    04:00 +22°C° 0.4 mm 0 m/S 722 mmHg 93%
    05:00 +22°C° 0.4 mm 0 m/S 722 mmHg 93%
    06:00 +23°C° 0.2 mm 0 m/S 722 mmHg 89%
    07:00 +24°C° 0.2 mm 0 m/S 723 mmHg 86%
    08:00 +27°C° 0.2 mm 1 m/S 723 mmHg 82%
    09:00 +29°C° 0.2 mm 1 m/S 723 mmHg 76%
    10:00 +30°C° 0.2 mm 1 m/S 723 mmHg 69%
    11:00 +31°C° 0.2 mm 2 m/S 723 mmHg 63%
    12:00 +31°C° 0.7 mm 2 m/S 723 mmHg 62%
    13:00 +31°C° 0.7 mm 2 m/S 722 mmHg 62%
    14:00 +32°C° 0.7 mm 2 m/S 721 mmHg 62%
    15:00 +31°C° 1.2 mm 2 m/S 722 mmHg 67%
    16:00 +30°C° 1.2 mm 2 m/S 722 mmHg 72%
    17:00 +28°C° 1.2 mm 3 m/S 722 mmHg 77%
    18:00 +27°C° 0.6 mm 2 m/S 722 mmHg 82%
    19:00 +25°C° 0.6 mm 2 m/S 723 mmHg 87%
    20:00 +24°C° 0.6 mm 2 m/S 723 mmHg 92%
    21:00 +24°C° 0 mm 1 m/S 723 mmHg 93%
    22:00 +23°C° 0 mm 1 m/S 724 mmHg 93%
    23:00 +23°C° 0 mm 1 m/S 724 mmHg 94%

    übermorgen, 20 August, Dienstag

    Zeit Temperatur Niederschläge Wind Luftdruck Luftfeuchtigkeit
    00:00 +23°C° 0 mm 1 m/S 724 mmHg 93%
    01:00 +23°C° 0 mm 1 m/S 723 mmHg 93%
    02:00 +22°C° 0 mm 1 m/S 723 mmHg 93%
    03:00 +22°C° 0 mm 1 m/S 723 mmHg 93%
    04:00 +22°C° 0 mm 1 m/S 723 mmHg 93%
    05:00 +22°C° 0 mm 1 m/S 723 mmHg 93%
    06:00 +23°C° 0 mm 1 m/S 724 mmHg 90%
    07:00 +25°C° 0 mm 1 m/S 724 mmHg 86%
    08:00 +26°C° 0 mm 1 m/S 725 mmHg 83%
    09:00 +28°C° 0.1 mm 1 m/S 724 mmHg 74%
    10:00 +29°C° 0.1 mm 1 m/S 724 mmHg 66%
    11:00 +31°C° 0.1 mm 1 m/S 724 mmHg 57%
    12:00 +31°C° 0.1 mm 1 m/S 724 mmHg 56%
    13:00 +31°C° 0.1 mm 1 m/S 723 mmHg 55%
    14:00 +32°C° 0.1 mm 2 m/S 723 mmHg 53%
    15:00 +31°C° 0.6 mm 2 m/S 723 mmHg 60%
    16:00 +30°C° 0.6 mm 2 m/S 723 mmHg 67%
    17:00 +29°C° 0.6 mm 2 m/S 723 mmHg 73%
    18:00 +27°C° 1.4 mm 1 m/S 724 mmHg 79%
    19:00 +25°C° 1.4 mm 1 m/S 724 mmHg 84%
    20:00 +24°C° 1.4 mm 1 m/S 724 mmHg 89%
    21:00 +23°C° 0.2 mm 1 m/S 724 mmHg 89%
    22:00 +23°C° 0.2 mm 1 m/S 724 mmHg 90%
    23:00 +23°C° 0.2 mm 1 m/S 725 mmHg 90%

    21 August, Mittwoch

    Zeit Temperatur Niederschläge Wind Luftdruck Luftfeuchtigkeit
    00:00 +23°C° 0 mm 1 m/S 724 mmHg 90%
    01:00 +22°C° 0 mm 1 m/S 724 mmHg 90%
    02:00 +22°C° 0 mm 1 m/S 723 mmHg 90%
    03:00 +22°C° 0 mm 1 m/S 723 mmHg 91%
    04:00 +22°C° 0 mm 1 m/S 723 mmHg 91%
    05:00 +21°C° 0 mm 1 m/S 723 mmHg 92%
    06:00 +23°C° 0 mm 1 m/S 724 mmHg 88%
    07:00 +24°C° 0 mm 1 m/S 724 mmHg 84%
    08:00 +26°C° 0 mm 1 m/S 725 mmHg 79%
    09:00 +27°C° 0.6 mm 1 m/S 724 mmHg 75%
    10:00 +28°C° 0.6 mm 2 m/S 724 mmHg 70%
    11:00 +30°C° 0.6 mm 2 m/S 724 mmHg 65%
    12:00 +30°C° 0.6 mm 2 m/S 723 mmHg 63%
    13:00 +31°C° 0.6 mm 2 m/S 723 mmHg 61%
    14:00 +31°C° 0.6 mm 1 m/S 722 mmHg 59%
    15:00 +30°C° 0.9 mm 1 m/S 722 mmHg 64%
    16:00 +29°C° 0.9 mm 2 m/S 722 mmHg 69%
    17:00 +28°C° 0.9 mm 2 m/S 722 mmHg 75%
    18:00 +27°C° 0.4 mm 2 m/S 723 mmHg 78%
    19:00 +25°C° 0.4 mm 2 m/S 723 mmHg 82%
    20:00 +24°C° 0.4 mm 2 m/S 724 mmHg 86%
    21:00 +24°C° 0.1 mm 1 m/S 724 mmHg 87%
    22:00 +23°C° 0.1 mm 1 m/S 723 mmHg 87%
    23:00 +23°C° 0.1 mm 1 m/S 723 mmHg 88%

    22 August, Donnerstag

    Zeit Temperatur Niederschläge Wind Luftdruck Luftfeuchtigkeit
    00:00 +23°C° 0 mm 1 m/S 723 mmHg 87%
    01:00 +22°C° 0 mm 1 m/S 722 mmHg 87%
    02:00 +22°C° 0 mm 1 m/S 722 mmHg 87%
    03:00 +22°C° 0 mm 1 m/S 722 mmHg 87%
    04:00 +22°C° 0 mm 1 m/S 722 mmHg 88%
    05:00 +22°C° 0 mm 1 m/S 722 mmHg 88%
    06:00 +24°C° 0 mm 1 m/S 723 mmHg 82%
    07:00 +25°C° 0 mm 1 m/S 723 mmHg 76%
    08:00 +27°C° 0 mm 1 m/S 724 mmHg 70%
    09:00 +29°C° 0 mm 1 m/S 723 mmHg 65%
    10:00 +30°C° 0 mm 1 m/S 723 mmHg 61%
    11:00 +32°C° 0 mm 1 m/S 723 mmHg 56%
    12:00 +32°C° 0.1 mm 1 m/S 722 mmHg 55%
    13:00 +32°C° 0.1 mm 2 m/S 722 mmHg 54%
    14:00 +32°C° 0.1 mm 2 m/S 721 mmHg 53%
    15:00 +32°C° 0.1 mm 2 m/S 721 mmHg 58%
    16:00 +31°C° 0.1 mm 2 m/S 721 mmHg 62%
    17:00 +30°C° 0.1 mm 2 m/S 721 mmHg 67%
    18:00 +28°C° 0.1 mm 2 m/S 722 mmHg 72%
    19:00 +27°C° 0.1 mm 2 m/S 722 mmHg 78%
    20:00 +25°C° 0.1 mm 1 m/S 723 mmHg 83%
    21:00 +25°C° 0 mm 1 m/S 723 mmHg 85%
    22:00 +24°C° 0 mm 1 m/S 723 mmHg 87%
    23:00 +24°C° 0 mm 1 m/S 723 mmHg 89%

    23 August, Freitag

    Zeit Temperatur Niederschläge Wind Luftdruck Luftfeuchtigkeit
    00:00 +24°C° 0.1 mm 1 m/S 722 mmHg 89%
    01:00 +24°C° 0.1 mm 1 m/S 722 mmHg 89%
    02:00 +24°C° 0.1 mm 1 m/S 722 mmHg 88%
    03:00 +24°C° 0 mm 1 m/S 722 mmHg 87%
    04:00 +24°C° 0 mm 1 m/S 722 mmHg 86%
    05:00 +24°C° 0 mm 1 m/S 722 mmHg 85%
    06:00 +23°C° 0 mm 0 m/S 723 mmHg 80%
    07:00 +25°C° 0 mm 0 m/S 723 mmHg 75%
    08:00 +26°C° 0 mm 0 m/S 723 mmHg 70%
    09:00 +27°C° 0 mm 0 m/S 723 mmHg 66%
    10:00 +31°C° 0 mm 1 m/S 723 mmHg 62%
    11:00 +32°C° 0 mm 1 m/S 723 mmHg 58%
    12:00 +33°C° 0 mm 1 m/S 722 mmHg 56%
    13:00 +34°C° 0 mm 2 m/S 722 mmHg 55%
    14:00 +35°C° 0 mm 2 m/S 721 mmHg 54%
    15:00 +34°C° 0 mm 2 m/S 721 mmHg 58%
    16:00 +32°C° 0 mm 2 m/S 721 mmHg 63%
    17:00 +31°C° 0 mm 2 m/S 721 mmHg 67%
    18:00 +30°C° 0 mm 2 m/S 721 mmHg 69%
    19:00 +28°C° 0 mm 2 m/S 722 mmHg 71%
    20:00 +27°C° 0 mm 2 m/S 722 mmHg 73%
    21:00 +27°C° 0 mm 2 m/S 723 mmHg 74%
    22:00 +26°C° 0 mm 2 m/S 723 mmHg 76%
    23:00 +26°C° 0 mm 2 m/S 723 mmHg 78%
    Mehr zeigen